User: anonymous   Login
Location: Raleigh
(35.7720°N, 78.6390°W)
Time: 22:45:06
(UTC-04:00)
Language:

JAS-2 - Orbit

View from above orbital plane
View from above orbital plane
View from above satellite
View from above satellite

Ground track
Ground track

The orbit data is extracted from the following two-line orbital elements,

1 24278U 96046B   16236.83114997  .00000007  00000-0  42890-4 0  9992
2 24278  98.5830 153.1904 0351025  27.6395 334.2929 13.53070283988660
Epoch (UTC): 23 August 2016 19:56:51
Eccentricity: 0.0351025
inclination: 98.5830°
perigee height: 800 km
apogee height: 1322 km
right ascension of ascending node: 153.1904°
argument of perigee: 27.6395°
revolutions per day: 13.53070283
mean anomaly at epoch: 334.2929°
orbit number at epoch: 98866

The dashed part of the orbit path shows where the satellite is in the earth's shadow,  

DLR